Miscellaneous Local Product
Issued by NWS Hastings, NE

Home | Current Version | Previous Version | Graphics & Text | Print | Product List | Glossary On
Versions: 1 2 3 4 5 6 7 8 9 10 11 12 13 14 15 16 17 18 19 20 21 22 23 24 25 26 27 28 29 30 31 32 33 34 35 36 37 38 39 40 41 42 43 44 45 46 47 48 49 50
000
AXUS43 KGID 250502
MISGRI

GID CWA HOURLY WEATHER ROUNDUP
NATIONAL WEATHER SERVICE HASTINGS NE
1200 AM CDT MON JUL 25 2016

NOTE: "FAIR" INDICATES FEW OR NO CLOUDS BELOW 12,000 FEET WITH NO
SIGNIFICANT WEATHER AND/OR OBSTRUCTIONS TO VISIBILITY.

...SOUTH CENTRAL NEBRASKA...

CITY           SKY/WX    TMP DP  RH WIND       PRES   REMARKS
GRAND ISLAND   CLOUDY    68  63  84 NE5       30.12R
HASTINGS       CLOUDY    70  64  81 NE6       30.12S
KEARNEY        CLOUDY    68  63  83 E6        30.13S
ORD            MOCLDY    69  60  73 CALM      30.11S
YORK           CLOUDY    68  64  88 CALM      30.10S
AURORA         CLOUDY    68  65  91 CALM      30.11S
LEXINGTON      CLOUDY    70  64  81 E5        30.13S
HOLDREGE       MOCLDY    69  64  86 E5        30.12S
HEBRON         MOCLDY    67  63  89 CALM      30.08R

...NEBRASKA PANHANDLE...

CITY           SKY/WX    TMP DP  RH WIND       PRES   REMARKS
CHADRON        CLEAR     75  53  46 S15       30.13R
ALLIANCE       CLEAR     63  56  78 SE8       30.18R
SCOTTSBLUFF    CLEAR     66  55  67 SE6       30.19R
SIDNEY         CLOUDY    60  54  80 CALM      30.23R

...WESTERN AND NORTH CENTRAL NEBRASKA...

CITY           SKY/WX    TMP DP  RH WIND       PRES   REMARKS
VALENTINE      PTCLDY    68  58  70 SE6       30.14R
AINSWORTH      CLOUDY    67  60  77 SE5       30.15S
ONEILL         PTCLDY    68  59  71 CALM      30.14S
BROKEN BOW     CLOUDY    64  63  96 CALM      30.13F
IMPERIAL       CLOUDY    70  55  59 S13       30.10F
NORTH PLATTE   CLOUDY    69  62  78 E6        30.15S
MCCOOK         CLOUDY    73  61  65 SE13      30.11F

...EASTERN NEBRASKA...

CITY           SKY/WX    TMP DP  RH WIND       PRES   REMARKS
NORFOLK        PTCLDY    64  60  87 W3        30.10F
SO SIOUX CITY  CLEAR     68  64  87 NW7       30.08R
TEKAMAH        MOCLDY    68  64  87 N7        30.06S
COLUMBUS       CLOUDY    68  57  68 CALM      30.10S
ALBION         MOCLDY    64  60  85 CALM      30.12S
OMAHA EPPLEY   MOCLDY    71  66  84 NW5       30.05R
OFFUTT AFB     PTCLDY    74  66  77 N7        30.05R
MILLARD        PTCLDY    75  65  70 CALM      30.05R
LINCOLN        PTCLDY    69  65  86 N3        30.08R
NEBRASKA CITY  CLOUDY    70  66  87 NW3       30.05R
BEATRICE       PTCLDY    66  64  94 N3        30.06R
FALLS CITY     PTCLDY    70  67  90 N5        30.03R

...NORTHERN KANSAS...

CITY           SKY/WX    TMP DP  RH WIND       PRES   REMARKS
GOODLAND       RAIN      66  63  90 N8        30.26F FOG
HILL CITY      MOCLDY    74  60  61 NE8       30.11F
NORTON         CLEAR     70  54  56 N5        30.12F
SMITH CENTER   CLEAR     70  61  73 NE9       30.09R
BELOIT         CLEAR     70  63  78 NE3       30.05S
HAYS           CLOUDY    72  59  64 NE9       30.06F
RUSSELL        PTCLDY    74  65  73 NE9       30.05S
CONCORDIA      CLOUDY    71  63  75 NE3       30.06R
SALINA         CLOUDY    80  66  62 NE8       30.02R
TOPEKA         CLOUDY    78  69  73 SW3       30.01R THUNDER



USA.gov is the U.S. government's official web portal to all federal, state and local government web resources and services.